Simultaneous Nadir Overpasses (SNOs) Predictions

Prediction of SNOs between LANDSAT-8 and METOP-B Satellite Orbit:

Table of predicted SNOs for the next 14.0 days since TLE Epoch: 7/10/2021
Index Date (LANDSAT-8) Time (LANDSAT-8) Lat,Lon (LANDSAT-8) SZA (LANDSAT-8 ) Date (METOP-B) Time (METOP-B) Lat,Lon (METOP-B) SZA (METOP-B ) Distance(km) Time Diff (sec)
1 07/10/2021 04:38:15 81.14, 150.76 61.00 07/10/2021 04:38:50 81.14, 150.78 61.01 0.59 35
2 07/12/2021 23:23:05 -81.12, 49.20 118.69 07/12/2021 23:22:35 -81.11, 49.04 118.73 2.94 30
3 07/13/2021 00:12:31 81.12,-143.06 61.33 07/13/2021 00:13:14 81.13,-143.09 61.35 0.63 43
4 07/15/2021 18:57:20 -81.12, 115.75 118.25 07/15/2021 18:56:57 -81.12, 115.91 118.24 2.79 23
5 07/15/2021 19:46:46 81.13, -76.54 61.77 07/15/2021 19:47:37 81.13, -76.60 61.79 0.97 51
6 07/18/2021 14:31:35 -81.11,-178.10 117.82 07/18/2021 14:31:20 -81.11,-177.99 117.81 2.09 15
7 07/18/2021 15:21:00 81.13, -10.06 62.25 07/18/2021 15:21:59 81.13, -10.12 62.27 1.16 59
8 07/21/2021 10:05:50 -81.11,-111.61 117.29 07/21/2021 10:05:43 -81.12,-111.53 117.28 1.60 7



Historial Predications of SNOs between LANDSAT-8 and METOP-B
